Location: Red Deer
(52.2681°N, 113.8112°W)
Time: 20:39:06
(UTC-07:00)

N. Korean satellite - Pass Details

Date: 05 December 2022
Orbit: 407 x 441 km, 97.3° (Epoch: 05 February)

Event Time Altitude Azimuth Distance (km) Brightness Sun altitude
Rises 06:36:36 0° 8° (N) 2,525 10.1 -16.0°
Reaches altitude 10° 06:38:44 10° 1° (N) 1,639 9.1 -15.7°
Maximum altitude 06:42:03 40° 290° (WNW) 697 6.8 -15.2°
Drops below altitude 10° 06:45:19 10° 220° (SW) 1,605 9.0 -14.7°
Sets 06:47:23 0° 213° (SSW) 2,465 10.0 -14.4°
